STARLINK-11382, 62881

Orbit data source: Space-Track

STARLINK-11382, 62881 is a payload satellite owned by SpaceX/Seattle (US) in LEO that was launched on Tue, 04 Feb 2025 UTC via an FALCON 9 launch vehicle from the Air Force Eastern Test Range (AFETR). Payload-class satellites include a variety of spacecraft equipped with specific instruments for various scientific and technological missions. These include communications satellites like Starlink; space stations such as the ISS; scientific satellites like the Hubble; Earth observation satellites from companies like Planet Labs, Umbra, and HawkEye 360; GPS; miniature CubeSats for education and research; and military/defense satellites.

Loading next visibility...
Identifier
62881, 2025-024C
Orbit
LEO
Country
Flag of USUS
Related business
Manufacturer
SpaceX/Seattle
Mission
Operational Commercial Communications
Bus & Motor
STARLINK V2MD, Unknown motor
Mass
960 kg wet, ~910 kg dry
Launch date (UTC)
2025-02-04 (10 months ago)
Launch vehicle
FALCON 9
Launch site
Air Force Eastern Test Range (AFETR)
Object type
Payload
Rocket body
Debris
Shape & HBR
Box + 2 Pan, 18.1 m
Radar Cross Section
36.964 m², Large (>1 m²)

Expand to show TLE details & history
Last TLE update: 14 hours ago

TLE from 14 hours ago
0 STARLINK-11382
1 62881U 25024C   25347.01202431  .00162744  00000-0  12423-2 0  9990
2 62881  43.0017 343.9955 0002321 245.5391 114.5234 15.70930397 49835
Epoch: 2025-12-13T00:17Z
TLE epoch observation values (Epoch: 2025-12-13T00:17:18.900Z)
Latitude
-0.00006°
Longitude
-102.27873°
Altitude
356.657 km
Speed
7.697 km/s
True Right ascension
22h 55m 58s
True Declination
0° 00' 00"
Sunlit
Object was in daylight at epoch
Visualization orbit readout
Latitude
Unknown
Longitude
Unknown
Altitude
Unknown
Speed
Unknown
Apparent Right ascension
Unknown
Apparent Declination
Unknown
Sunlit
N/A
Visualization observer readout
Local Sidereal Time
12:42:38
Azimuth
Unknown
Elevation
Unknown
Doppler factor
Unknown
Orbital elements
Apogee altitude
359.782 km
Perigee altitude
356.655 km
Semi-major axis
6,736.355 km
Eccentricity
0.00023
Inclination
43.0017°
RAAN
343.9955°
Arg. of periapsis
245.5391°
True anomaly
114.54759°
Mean anomaly
114.5234°
Eccentric anomaly
114.5355°
Mean motion
3.9256 °/min
Orbital period
91.71 mins
BSTAR
0.0012423
Loading maneuver chart data...
Computing Atmospheric mass density...
Loading historical data...
Loading historical data...
Loading historical data...
Loading historical data...
Loading historical data...
Loading historical data...
Loading historical data...

Documentation

Showing up to 5 results
|